Temp_Advection
nan nan nan nan nan nan nan nan nan nan nan nan nan nan nan nan nan nan nan nan nan nan nan nan nan nan nan nan nan nan nan nan nan nan nan nan nan nan nan nan nan nan nan
nan 0 0 -0 -0 -0 0 0 0 1 1 -0 0 0 0 -0 0 -0 -0 0 0 -0 -0 0 0 0 0 0 0 0 -0 0 0 0 -0 -0 0 0 0 -0 -0 -0 nan
nan -0 -0 -0 -0 -1 -0 0 -0 -0 -0 -0 0 -0 -0 -0 -0 -0 -0 0 0 -0 -0 0 0 0 0 0 0 0 -0 0 0 0 -0 -0 0 0 -0 -0 0 -0 nan
nan -0 -0 -0 -0 -0 -0 -0 -0 -0 -0 -0 -0 -0 -1 -0 -0 0 0 0 0 0 0 0 0 0 0 0 1 0 -0 -0 -0 0 0 -0 0 1 0 -0 -0 0 nan
nan -0 -0 -0 -0 -0 -0 0 0 -0 -0 0 -0 -0 -0 0 0 0 0 0 0 0 0 0 0 1 1 1 0 0 -0 -0 -0 0 0 0 -0 1 1 0 -0 -0 nan
nan -0 -0 -0 -0 -0 0 0 0 0 0 0 -0 0 0 0 0 0 0 0 0 0 0 -0 1 1 1 0 0 -0 -0 -0 -0 -0 0 1 1 -0 0 0 0 0 nan
nan -0 -0 -0 -0 -0 -0 0 0 0 0 0 0 0 0 0 0 0 0 0 0 0 0 0 0 1 0 0 0 -0 -0 -0 -0 -0 0 0 1 1 1 1 0 -0 nan
nan -1 -0 0 -0 -0 0 0 0 0 0 0 0 0 0 0 0 0 0 0 0 0 0 0 0 0 0 0 -0 -0 -0 0 0 -0 -0 0 0 0 1 1 1 0 nan
nan -0 -0 0 -0 -0 0 0 0 1 0 0 0 0 0 0 0 0 0 0 0 0 1 1 0 0 0 0 -0 -0 0 0 -0 -0 0 -0 0 0 1 1 1 1 nan
nan -0 -0 -0 -0 0 1 0 0 0 0 1 0 0 0 0 0 -0 -0 0 1 1 1 1 0 0 0 0 -0 -0 -0 0 0 -0 0 0 0 -0 -0 1 1 0 nan
nan 0 0 0 0 1 1 1 0 0 0 0 0 0 0 -0 0 0 0 1 1 1 1 0 -0 -0 0 0 0 0 0 0 0 0 0 0 0 0 0 0 1 1 nan
nan 0 0 -0 0 0 0 0 0 0 0 0 0 0 0 0 0 0 1 1 0 0 -0 -0 0 0 0 0 0 0 0 -0 0 0 0 -0 0 0 0 0 0 0 nan
nan 0 0 -0 -0 0 0 0 0 0 0 0 0 0 0 0 0 0 0 0 -0 -0 0 0 0 0 0 0 0 0 0 0 -0 0 0 0 0 0 0 0 1 0 nan
nan 0 0 0 -0 -0 -0 0 0 0 0 0 0 0 0 0 0 0 0 0 0 0 0 0 0 0 -0 -0 0 1 0 0 0 0 0 0 0 0 0 1 0 0 nan
nan -0 -0 -0 0 0 -0 0 0 0 0 0 0 0 0 0 0 0 0 0 0 0 0 0 -0 -0 0 0 0 0 0 0 0 0 0 0 1 1 -0 -0 -0 -0 nan
nan -0 -0 0 0 0 0 0 0 0 0 0 1 1 1 1 0 0 0 0 0 0 0 0 0 0 0 0 0 0 0 0 0 0 0 1 1 -0 0 0 0 -0 nan
nan -0 -0 -0 0 0 0 0 0 0 0 0 1 1 1 0 0 0 0 0 0 0 0 0 0 0 0 0 0 -0 -0 -0 0 1 1 0 0 -0 -0 0 0 -0 nan
nan -0 -0 0 0 0 0 0 0 0 0 0 1 0 0 0 0 0 0 0 0 0 0 0 0 0 0 0 0 -0 -1 0 1 0 -0 -0 -0 0 -0 -0 -0 -0 nan
nan 0 0 -0 0 0 0 -0 -0 0 0 0 1 1 1 0 0 0 0 0 0 0 0 0 0 0 0 0 0 0 -0 -1 0 -0 -0 0 0 -0 -0 0 0 -0 nan
nan -0 -0 -0 -0 0 0 -0 -0 -0 0 0 1 1 0 0 0 0 0 0 0 0 0 0 0 0 0 1 1 1 0 -0 -0 -0 0 0 -0 -0 -0 -0 -0 0 nan
nan -0 -0 -0 -0 -0 -0 -0 -0 -0 0 1 1 0 0 0 0 0 0 0 0 0 0 0 0 0 1 1 1 0 0 0 0 0 0 0 -0 -0 -0 -0 0 -0 nan
nan -0 -0 -0 -0 -0 -0 -0 -0 0 1 1 0 0 0 0 0 0 0 0 0 0 0 0 0 1 1 1 0 -0 0 0 0 -0 -0 0 0 0 -0 0 0 -0 nan
nan -0 -0 -0 -0 -0 -0 -0 0 0 0 0 0 0 0 0 0 0 0 0 0 0 0 0 0 1 1 1 0 0 0 -0 -0 0 -0 0 0 0 -0 -0 0 -0 nan
nan -0 -0 -0 -0 -0 -0 0 0 0 0 0 0 0 0 0 0 0 0 0 0 0 0 -0 0 0 0 1 0 0 0 0 -0 -0 0 0 0 0 -0 0 -0 -0 nan
nan -0 -0 -0 -0 -0 0 0 0 0 0 0 0 0 0 0 0 0 0 0 0 0 0 0 0 0 0 0 0 0 0 0 0 -0 -0 0 -0 -0 -0 0 0 -0 nan
nan nan nan nan nan nan nan nan nan nan nan nan nan nan nan nan nan nan nan nan nan nan nan nan nan nan nan nan nan nan nan nan nan nan nan nan nan nan nan nan nan nan nan
Wind_Speed
14 25 26 29 35 38 36 34 36 30 30 32 30 28 26 27 24 21 21 18 16 14 13 13 12 13 15 14 13 10 9 9 8 9 10 10 15 17 17 17 15 14 13
9 13 18 27 35 36 40 39 37 37 37 31 24 26 31 33 25 22 22 23 22 19 17 17 16 16 16 17 16 13 11 12 10 10 13 11 17 19 7 13 15 10 10
12 15 16 21 25 27 30 31 30 29 34 33 32 32 32 30 25 27 27 26 25 25 22 22 21 18 17 19 17 13 11 14 13 14 17 13 10 16 19 17 16 15 14
17 17 21 21 20 20 22 24 27 27 27 29 30 30 26 26 28 27 24 27 27 27 27 28 26 24 21 21 18 14 14 16 14 18 18 20 22 20 14 15 19 18 18
25 19 23 23 21 19 19 21 24 25 25 27 25 26 25 25 26 24 24 25 28 29 29 29 27 26 25 23 19 17 15 16 17 20 21 24 25 21 23 28 21 19 19
27 22 20 25 24 22 21 22 24 25 24 21 23 23 23 21 19 21 21 19 20 28 30 29 29 25 23 21 14 12 15 21 21 22 21 21 20 22 18 20 21 22 21
28 26 26 26 25 24 20 23 25 25 24 23 23 22 22 21 21 20 22 21 19 21 26 28 26 24 19 17 17 13 16 19 19 20 19 19 21 21 20 21 23 24 25
19 26 30 30 26 23 20 21 24 24 23 23 23 23 23 23 22 21 22 22 20 19 20 20 16 15 13 13 14 12 14 18 19 20 21 19 20 21 21 21 20 20 23
13 15 20 30 29 26 22 19 20 22 22 23 22 22 22 22 21 21 22 24 22 21 19 14 13 14 15 17 15 17 17 18 18 19 19 19 19 21 21 20 20 21 20
3 1 7 16 20 23 24 22 20 21 21 21 19 18 18 18 18 19 19 20 21 20 18 17 15 16 16 16 17 17 17 16 18 20 21 21 20 19 20 21 20 18 21
4 6 4 5 18 21 21 22 21 19 16 15 15 15 14 14 14 13 13 14 14 17 18 15 14 13 10 11 13 14 16 19 23 22 22 20 21 20 19 19 19 17 19
6 7 7 4 1 7 18 17 17 16 14 12 12 12 12 11 11 10 10 10 11 14 13 13 12 11 11 14 16 19 21 21 21 20 21 21 22 21 20 19 18 17 19
5 5 5 4 4 3 5 9 11 12 12 12 13 13 13 12 11 11 11 13 13 13 13 11 11 13 14 15 19 19 19 20 21 22 22 22 21 21 21 20 19 18 18
8 7 6 6 5 3 2 5 9 12 13 14 15 14 13 13 12 13 14 14 14 13 11 12 15 16 16 19 24 21 20 21 21 21 21 20 21 20 21 20 20 20 19
3 3 4 1 2 1 1 1 3 7 12 15 16 15 14 15 15 15 16 16 15 12 13 14 13 12 16 17 17 18 19 20 21 21 20 19 19 16 15 15 17 17 16
10 9 10 10 10 8 7 7 6 7 9 13 16 16 17 17 17 17 18 18 16 13 14 11 10 13 15 16 18 19 20 21 21 19 18 17 13 13 14 14 14 13 11
16 11 11 12 13 15 14 10 9 10 10 12 16 19 20 19 19 19 19 19 17 14 11 10 12 13 14 16 19 21 21 20 18 17 15 13 11 12 13 12 11 9 10
12 8 12 13 14 14 14 16 17 16 14 12 16 20 21 20 20 20 20 18 16 12 11 11 12 13 15 17 19 21 21 18 14 12 11 10 10 11 10 9 9 9 10
11 13 15 17 20 19 18 19 19 18 20 17 16 20 22 22 22 21 18 17 14 12 11 11 12 14 15 16 18 19 19 16 11 10 10 10 10 10 10 9 8 8 10
8 11 14 18 20 19 20 19 19 21 22 19 16 18 19 19 18 16 16 15 14 13 12 12 13 15 15 17 18 17 16 16 10 9 10 10 11 11 11 9 10 10 9
9 12 14 15 16 16 17 18 21 19 18 17 15 17 18 17 16 16 16 14 14 13 12 12 14 15 16 17 13 14 12 14 10 9 9 9 10 10 10 9 9 9 10
8 10 12 12 12 12 12 12 14 15 16 17 15 17 18 17 18 17 16 16 14 12 12 12 13 14 15 15 11 12 13 12 11 10 9 10 11 11 10 10 9 9 11
7 8 8 8 9 10 9 7 8 12 13 15 14 15 16 16 17 17 16 15 13 12 12 11 11 13 13 13 11 12 13 15 12 10 11 12 12 11 11 10 10 11 10
4 5 5 4 5 4 4 5 5 8 11 15 13 13 14 16 16 16 16 15 13 12 12 13 13 12 12 13 11 12 13 14 14 12 11 12 13 12 12 11 10 11 10
3 4 4 3 2 6 5 6 9 11 13 12 12 12 13 14 15 14 14 13 13 13 14 12 11 12 12 10 12 12 13 13 13 15 15 14 13 11 11 10 11 11 11
2 1 2 3 4 4 4 5 6 6 7 9 10 11 12 13 13 14 14 14 13 14 15 14 12 12 11 12 11 12 12 12 14 18 17 16 14 13 12 12 12 12 13
Wind_Direction
194 199 199 201 208 214 217 215 215 223 230 231 221 212 229 221 217 220 223 222 225 227 242 249 256 264 254 242 230 219 237 243 251 277 295 300 305 301 303 301 307 312 307
208 190 204 201 208 210 214 216 217 217 223 221 225 229 231 229 221 225 228 232 232 234 245 253 256 266 252 226 218 224 250 267 264 284 301 308 309 308 300 309 311 299 300
242 219 211 209 210 213 215 218 218 222 225 222 220 228 231 230 226 230 233 234 233 232 247 251 252 242 240 227 225 236 262 268 281 303 296 299 295 294 296 303 301 287 279
242 241 230 224 219 217 218 220 222 227 230 228 226 233 236 241 241 243 248 246 242 241 245 245 247 239 248 234 233 245 251 269 287 297 296 287 288 285 292 289 289 286 284
236 242 230 225 222 223 227 230 227 229 231 232 237 241 242 247 251 254 257 257 247 249 254 255 255 252 245 235 237 247 254 261 283 286 289 294 294 282 278 283 287 283 283
233 240 237 227 232 230 235 235 236 235 234 234 239 243 246 253 256 257 258 262 262 256 255 259 258 248 241 238 241 249 267 264 283 284 284 291 293 292 281 278 279 284 283
236 243 240 231 225 228 234 238 241 241 241 237 244 248 253 254 255 254 257 260 261 263 262 263 261 259 243 235 235 247 258 270 274 282 283 283 285 285 284 277 277 278 281
248 254 245 236 229 228 233 233 239 237 239 243 247 250 252 255 257 253 257 262 263 264 266 265 253 241 233 234 233 252 274 286 287 292 293 292 291 286 285 281 279 279 276
274 251 241 229 227 230 235 231 234 227 234 242 242 244 249 254 259 261 260 262 261 258 253 234 219 233 233 235 245 256 268 278 286 286 288 289 284 281 280 280 277 270 273
19 295 215 210 221 231 230 229 227 230 238 246 246 247 250 252 256 260 266 265 257 248 231 220 234 233 240 258 261 267 271 280 286 290 289 288 283 281 282 278 278 269 263
71 58 65 204 222 220 221 224 224 230 235 232 236 242 249 253 257 261 263 259 248 236 216 219 226 239 238 247 260 268 273 282 291 291 290 286 284 284 284 282 278 270 258
90 75 62 53 220 226 227 222 223 217 215 225 235 241 242 246 246 241 231 221 209 200 202 213 213 220 244 269 277 284 291 291 294 296 296 293 290 288 285 281 275 263 256
120 115 93 90 94 135 172 195 205 217 223 229 237 240 242 240 232 216 201 190 189 194 197 207 230 259 272 286 294 290 293 296 296 292 289 287 287 284 280 278 271 263 258
97 94 84 83 89 104 181 224 239 242 244 245 243 238 236 228 217 210 200 194 197 201 214 241 267 274 285 288 281 286 291 291 291 290 288 284 283 280 279 279 275 266 256
27 324 306 234 181 148 312 280 246 242 243 243 242 236 225 215 213 211 211 208 205 229 252 257 269 276 272 274 280 286 290 292 290 286 281 284 283 288 292 286 282 276 255
356 309 280 270 265 263 258 258 268 261 243 239 237 233 225 221 223 222 221 218 237 251 252 253 260 266 273 279 286 291 294 295 293 287 285 287 289 291 288 287 285 277 250
311 276 278 275 270 268 264 258 256 257 251 242 233 228 227 231 232 226 222 236 245 237 232 245 259 270 280 289 293 295 296 295 288 284 285 287 285 287 289 284 278 269 255
268 254 265 267 266 266 267 260 257 251 251 246 232 228 228 229 226 231 239 236 225 225 232 247 265 280 287 290 293 298 304 304 290 283 280 280 281 283 282 278 268 259 252
265 266 261 262 269 273 268 261 255 252 243 242 241 230 226 228 230 230 223 219 221 227 239 256 270 279 287 295 300 304 306 307 281 273 272 269 267 269 271 266 261 260 256
275 272 273 274 274 269 264 259 255 250 247 240 240 226 221 220 216 213 216 219 224 234 248 263 278 290 293 293 297 300 304 310 278 263 261 259 260 263 268 267 262 255 252
287 287 287 284 277 271 265 259 250 249 246 231 229 219 215 213 210 211 215 220 229 241 256 274 287 288 285 284 288 291 297 300 281 263 257 255 254 259 264 268 265 257 246
299 301 300 294 289 282 272 264 250 236 229 216 216 214 212 211 212 215 218 224 235 250 265 277 283 283 281 285 283 284 288 285 272 263 259 260 261 262 263 264 260 257 248
317 322 312 310 309 288 262 260 237 222 208 203 206 211 213 214 217 220 224 231 241 252 263 274 288 298 292 293 290 275 271 275 269 262 263 262 262 260 260 259 257 256 256
339 343 336 313 333 336 251 228 201 187 187 191 197 207 213 217 218 220 225 233 242 251 259 273 288 296 304 293 277 270 267 267 265 266 267 268 264 258 257 253 262 262 255
342 18 14 12 45 57 71 131 148 158 169 183 201 209 216 218 219 222 231 240 243 249 265 276 285 294 304 291 275 270 265 264 258 259 261 264 267 268 262 263 261 258 257
298 13 38 51 63 81 102 106 114 136 166 191 206 213 216 218 222 228 234 242 250 263 272 274 277 281 293 290 276 272 268 263 254 257 260 264 268 270 271 265 260 259 266
Height
1479 1484 1487 1489 1497 1503 1505 1509 1512 1517 1520 1521 1526 1530 1531 1534 1536 1539 1543 1545 1547 1548 1550 1552 1553 1555 1555 1556 1559 1560 1561 1562 1563 1563 1565 1566 1566 1566 1565 1564 1563 1563 1562
1477 1481 1482 1490 1493 1495 1500 1505 1509 1513 1516 1516 1517 1525 1528 1531 1533 1537 1539 1541 1545 1546 1548 1549 1550 1551 1552 1553 1554 1555 1558 1560 1562 1562 1563 1561 1561 1561 1561 1561 1561 1560 1560
1476 1478 1482 1485 1489 1492 1496 1500 1502 1506 1512 1516 1519 1522 1524 1525 1528 1531 1535 1538 1540 1541 1543 1545 1546 1548 1549 1551 1553 1554 1556 1558 1560 1560 1563 1561 1558 1558 1557 1557 1557 1557 1557
1472 1473 1477 1481 1484 1486 1490 1495 1498 1502 1507 1511 1513 1517 1520 1522 1524 1527 1529 1533 1536 1537 1539 1540 1542 1544 1546 1547 1549 1551 1552 1555 1555 1556 1558 1559 1557 1556 1553 1552 1552 1553 1554
1468 1470 1474 1477 1480 1484 1488 1490 1494 1497 1500 1504 1509 1513 1515 1516 1520 1523 1525 1526 1529 1531 1533 1535 1537 1538 1540 1542 1542 1546 1546 1550 1552 1553 1552 1552 1552 1551 1550 1547 1548 1548 1550
1462 1466 1470 1474 1477 1480 1483 1487 1490 1494 1497 1503 1505 1507 1510 1512 1514 1518 1520 1523 1525 1525 1527 1529 1530 1530 1533 1535 1535 1539 1544 1547 1548 1548 1546 1545 1547 1546 1544 1543 1544 1543 1544
1455 1460 1464 1468 1472 1477 1480 1483 1485 1488 1492 1496 1500 1502 1505 1508 1510 1513 1516 1518 1519 1520 1523 1524 1525 1527 1529 1532 1533 1535 1540 1542 1542 1542 1540 1539 1539 1540 1540 1539 1539 1539 1540
1451 1452 1456 1463 1468 1472 1476 1479 1481 1484 1488 1492 1496 1498 1501 1504 1507 1508 1511 1512 1514 1516 1518 1520 1521 1523 1525 1529 1532 1533 1535 1536 1538 1537 1537 1535 1536 1535 1535 1535 1535 1534 1534
1445 1445 1446 1452 1461 1466 1471 1475 1477 1480 1483 1487 1490 1493 1496 1498 1500 1503 1505 1508 1509 1511 1514 1517 1518 1521 1523 1526 1527 1530 1529 1532 1533 1532 1532 1531 1530 1532 1530 1530 1530 1530 1530
1442 1442 1443 1449 1454 1459 1465 1470 1472 1476 1479 1483 1485 1488 1490 1492 1495 1498 1500 1501 1504 1506 1510 1513 1516 1519 1520 1522 1524 1525 1526 1527 1528 1527 1526 1525 1525 1525 1523 1524 1524 1524 1525
1442 1443 1443 1446 1451 1456 1461 1464 1468 1472 1475 1477 1481 1483 1486 1488 1490 1491 1494 1496 1498 1501 1506 1510 1512 1515 1517 1519 1520 1521 1522 1522 1522 1521 1521 1520 1519 1518 1518 1517 1517 1519 1521
1443 1444 1445 1448 1451 1453 1456 1460 1464 1467 1470 1473 1476 1480 1482 1484 1486 1488 1491 1493 1496 1499 1504 1507 1508 1512 1514 1515 1516 1516 1516 1516 1515 1514 1514 1514 1513 1512 1512 1512 1512 1512 1514
1445 1446 1448 1450 1452 1453 1455 1458 1461 1464 1467 1469 1473 1476 1480 1482 1484 1486 1489 1492 1494 1498 1501 1504 1506 1508 1509 1509 1510 1511 1510 1510 1509 1509 1509 1509 1508 1507 1507 1506 1507 1508 1508
1448 1450 1451 1453 1454 1454 1455 1457 1460 1461 1463 1467 1470 1473 1477 1479 1482 1485 1487 1490 1492 1496 1498 1501 1503 1504 1504 1504 1505 1506 1506 1506 1505 1504 1503 1503 1502 1502 1501 1500 1501 1501 1501
1448 1450 1452 1454 1455 1455 1456 1457 1459 1460 1461 1465 1467 1470 1474 1477 1480 1483 1486 1488 1491 1493 1494 1497 1498 1498 1500 1501 1502 1501 1501 1500 1500 1498 1498 1496 1496 1496 1495 1495 1495 1495 1494
1449 1451 1452 1453 1453 1454 1456 1457 1457 1459 1460 1461 1464 1468 1470 1474 1477 1480 1483 1485 1488 1489 1490 1491 1493 1495 1497 1497 1497 1497 1496 1495 1494 1492 1491 1490 1491 1492 1492 1492 1492 1490 1490
1448 1450 1450 1450 1451 1452 1453 1454 1455 1455 1456 1457 1461 1464 1468 1471 1473 1476 1479 1482 1484 1485 1485 1488 1490 1492 1493 1493 1492 1492 1491 1489 1488 1487 1486 1487 1488 1488 1489 1488 1488 1488 1488
1446 1447 1448 1448 1449 1449 1449 1450 1451 1453 1453 1454 1457 1460 1463 1467 1470 1473 1476 1478 1480 1481 1483 1485 1487 1488 1488 1488 1488 1486 1485 1484 1483 1483 1483 1484 1485 1485 1486 1485 1485 1485 1486
1442 1442 1442 1444 1445 1446 1445 1446 1446 1447 1449 1451 1452 1455 1459 1463 1466 1468 1471 1474 1476 1478 1479 1481 1483 1484 1485 1484 1483 1482 1480 1479 1479 1480 1480 1481 1482 1482 1483 1483 1482 1483 1484
1439 1439 1439 1440 1439 1439 1439 1440 1440 1441 1443 1446 1448 1452 1456 1458 1461 1464 1468 1471 1474 1475 1476 1478 1479 1480 1480 1480 1479 1478 1478 1476 1476 1476 1477 1479 1479 1479 1479 1480 1480 1481 1481
1438 1438 1437 1436 1434 1433 1433 1433 1434 1435 1439 1442 1446 1448 1452 1455 1458 1461 1464 1468 1470 1471 1473 1474 1475 1476 1476 1476 1475 1475 1475 1474 1472 1473 1474 1476 1476 1476 1477 1477 1478 1478 1479
1437 1435 1434 1432 1430 1428 1427 1428 1429 1431 1435 1439 1443 1445 1449 1452 1455 1459 1462 1464 1466 1468 1469 1471 1472 1473 1472 1471 1471 1471 1471 1471 1471 1471 1472 1473 1473 1474 1474 1475 1475 1475 1476
1435 1433 1432 1431 1429 1427 1426 1426 1426 1428 1432 1437 1441 1444 1447 1450 1453 1456 1458 1460 1463 1464 1466 1467 1468 1468 1467 1466 1466 1466 1467 1467 1468 1468 1468 1469 1470 1470 1471 1472 1473 1473 1474
1435 1433 1432 1431 1429 1426 1425 1425 1426 1428 1431 1435 1439 1442 1445 1447 1450 1452 1455 1457 1459 1461 1463 1463 1463 1463 1463 1463 1462 1462 1463 1464 1464 1465 1465 1465 1466 1467 1468 1469 1470 1470 1471
1435 1433 1433 1431 1430 1428 1427 1426 1427 1428 1431 1434 1438 1440 1443 1445 1447 1450 1452 1454 1456 1457 1458 1459 1459 1459 1460 1459 1458 1459 1459 1460 1461 1461 1461 1462 1463 1464 1465 1466 1467 1468 1469
1434 1434 1433 1432 1431 1430 1430 1429 1429 1431 1433 1435 1436 1439 1441 1443 1445 1447 1449 1450 1452 1454 1455 1455 1455 1455 1455 1455 1455 1455 1455 1456 1457 1456 1457 1459 1460 1461 1462 1463 1465 1465 1466